LAN1360 SEGU-SEQM

Flight info

Callsign LAN1360
Flight time 0h 29m
Altitude 24000
Route REGAP2 PAMIS G675 QIT
Aircraft A20N/M-SDE2E3FGHIJ1RWXY/L

Departure

Time 2026-04-25 01:05
Airport José Joaquín de Olmedo International Airport (SEGU)

Arrival

Time 2026-04-25 01:34
Airport Mariscal Sucre International Airport (SEQM)
Time Latitude Longitude Altitude Speed Heading
2026-04-25 00:44 -2.14947 -79.88368 22 ft 0 kts 298°
2026-04-25 00:57 -2.14951 -79.88362 24 ft 2 kts 300°
2026-04-25 00:58 -2.14960 -79.88348 23 ft 2 kts 310°
2026-04-25 00:58 -2.14972 -79.88336 25 ft 2 kts 324°
2026-04-25 00:58 -2.14986 -79.88329 23 ft 2 kts 347°
2026-04-25 00:58 -2.15002 -79.88328 26 ft 2 kts 12°
2026-04-25 00:59 -2.15017 -79.88332 24 ft 2 kts 26°
2026-04-25 00:59 -2.15023 -79.88335 24 ft 0 kts 29°
2026-04-25 01:02 -2.14991 -79.88317 25 ft 14 kts 30°
2026-04-25 01:02 -2.14860 -79.88242 24 ft 24 kts 30°
2026-04-25 01:02 -2.14789 -79.88159 21 ft 14 kts 109°
2026-04-25 01:02 -2.14834 -79.88063 24 ft 16 kts 94°
2026-04-25 01:03 -2.14751 -79.87986 23 ft 19 kts 32°
2026-04-25 01:03 -2.14657 -79.87903 21 ft 10 kts 70°
2026-04-25 01:03 -2.14648 -79.87875 21 ft 0 kts 73°
2026-04-25 01:04 -2.14638 -79.87843 21 ft 12 kts 75°
2026-04-25 01:04 -2.14676 -79.87756 23 ft 14 kts 184°
2026-04-25 01:05 -2.14801 -79.87827 21 ft 47 kts 209°
2026-04-25 01:05 -2.15367 -79.88152 21 ft 135 kts 210°
2026-04-25 01:05 -2.16352 -79.88713 260 ft 186 kts 210°
2026-04-25 01:05 -2.17612 -79.89438 739 ft 228 kts 207°
2026-04-25 01:06 -2.19237 -79.89829 1556 ft 256 kts 181°
2026-04-25 01:06 -2.20971 -79.89366 2713 ft 258 kts 150°
2026-04-25 01:06 -2.22301 -79.88193 3558 ft 257 kts 126°
2026-04-25 01:06 -2.22968 -79.86610 3681 ft 244 kts 96°
2026-04-25 01:07 -2.22752 -79.84943 3827 ft 247 kts 66°
2026-04-25 01:07 -2.21670 -79.83620 4432 ft 250 kts 33°
2026-04-25 01:07 -2.20064 -79.83059 5650 ft 246 kts
2026-04-25 01:07 -2.18344 -79.82889 6634 ft 252 kts
2026-04-25 01:08 -2.16627 -79.82458 7539 ft 257 kts 21°
2026-04-25 01:08 -2.15016 -79.81639 8448 ft 263 kts 33°
2026-04-25 01:08 -2.13523 -79.80550 9368 ft 269 kts 39°
2026-04-25 01:08 -2.12097 -79.79313 10232 ft 274 kts 42°
2026-04-25 01:09 -2.10690 -79.78010 11092 ft 278 kts 43°
2026-04-25 01:09 -2.09100 -79.76809 11577 ft 299 kts 31°
2026-04-25 01:09 -2.07249 -79.75678 11897 ft 324 kts 30°
2026-04-25 01:09 -2.05240 -79.74483 12181 ft 348 kts 30°
2026-04-25 01:10 -2.03111 -79.73228 12722 ft 359 kts 30°
2026-04-25 01:10 -2.00947 -79.71954 13521 ft 363 kts 30°
2026-04-25 01:10 -1.98761 -79.70666 14261 ft 367 kts 30°
2026-04-25 01:10 -1.96550 -79.69362 15012 ft 370 kts 30°
2026-04-25 01:11 -1.94327 -79.68051 15765 ft 372 kts 30°
2026-04-25 01:11 -1.92091 -79.66730 16544 ft 374 kts 30°
2026-04-25 01:11 -1.89847 -79.65405 17352 ft 375 kts 30°
2026-04-25 01:11 -1.87624 -79.64092 18178 ft 375 kts 30°
2026-04-25 01:12 -1.85378 -79.62765 18882 ft 375 kts 30°
2026-04-25 01:12 -1.83130 -79.61438 19562 ft 376 kts 30°
2026-04-25 01:12 -1.80878 -79.60109 20258 ft 376 kts 30°
2026-04-25 01:12 -1.78626 -79.58779 20979 ft 376 kts 30°
2026-04-25 01:13 -1.76373 -79.57450 21709 ft 375 kts 31°
2026-04-25 01:13 -1.74125 -79.56124 22465 ft 374 kts 31°
2026-04-25 01:13 -1.71888 -79.54803 23235 ft 373 kts 31°
2026-04-25 01:13 -1.69617 -79.53463 23492 ft 387 kts 31°
2026-04-25 01:14 -1.67252 -79.52067 23630 ft 402 kts 31°
2026-04-25 01:14 -1.64800 -79.50619 23731 ft 414 kts 31°
2026-04-25 01:14 -1.62315 -79.49153 23838 ft 415 kts 31°
2026-04-25 01:14 -1.59827 -79.47685 23934 ft 415 kts 31°
2026-04-25 01:15 -1.57331 -79.46211 23993 ft 416 kts 31°
2026-04-25 01:15 -1.54839 -79.44740 24013 ft 416 kts 31°
2026-04-25 01:15 -1.52349 -79.43270 24020 ft 416 kts 31°
2026-04-25 01:15 -1.49853 -79.41797 24029 ft 416 kts 31°
2026-04-25 01:16 -1.47356 -79.40323 24040 ft 416 kts 31°
2026-04-25 01:16 -1.44859 -79.38849 24049 ft 416 kts 31°
2026-04-25 01:16 -1.42366 -79.37377 24057 ft 416 kts 31°
2026-04-25 01:16 -1.39871 -79.35905 24069 ft 417 kts 31°
2026-04-25 01:17 -1.37371 -79.34430 24075 ft 420 kts 31°
2026-04-25 01:17 -1.34816 -79.32922 24085 ft 431 kts 31°
2026-04-25 01:17 -1.32230 -79.31396 24091 ft 431 kts 31°
2026-04-25 01:17 -1.29646 -79.29871 24102 ft 430 kts 31°
2026-04-25 01:18 -1.27069 -79.28350 24111 ft 429 kts 31°
2026-04-25 01:18 -1.24536 -79.26856 24120 ft 416 kts 31°
2026-04-25 01:18 -1.22058 -79.25394 24133 ft 414 kts 31°
2026-04-25 01:18 -1.19531 -79.23902 24144 ft 429 kts 31°
2026-04-25 01:19 -1.16948 -79.22377 24150 ft 431 kts 31°
2026-04-25 01:19 -1.14365 -79.20854 24165 ft 433 kts 31°
2026-04-25 01:19 -1.11722 -79.19294 24174 ft 448 kts 31°
2026-04-25 01:19 -1.09057 -79.17721 24180 ft 451 kts 31°
2026-04-25 01:20 -1.06352 -79.16125 24190 ft 451 kts 31°
2026-04-25 01:20 -1.03650 -79.14531 24198 ft 451 kts 31°
2026-04-25 01:20 -1.00946 -79.12936 24207 ft 450 kts 31°
2026-04-25 01:20 -0.98247 -79.11344 24218 ft 451 kts 31°
2026-04-25 01:21 -0.95548 -79.09752 24226 ft 451 kts 31°
2026-04-25 01:21 -0.92852 -79.08161 24234 ft 450 kts 31°
2026-04-25 01:21 -0.90151 -79.06568 24240 ft 451 kts 31°
2026-04-25 01:21 -0.87452 -79.04976 24249 ft 451 kts 31°
2026-04-25 01:22 -0.84781 -79.03400 24255 ft 437 kts 31°
2026-04-25 01:22 -0.82226 -79.01894 24259 ft 416 kts 31°
2026-04-25 01:22 -0.79762 -79.00438 24265 ft 412 kts 32°
2026-04-25 01:22 -0.77317 -78.98900 24271 ft 417 kts 33°
2026-04-25 01:23 -0.74893 -78.97306 24247 ft 415 kts 34°
2026-04-25 01:23 -0.72492 -78.95717 23954 ft 413 kts 34°
2026-04-25 01:23 -0.70100 -78.94142 23409 ft 411 kts 33°
2026-04-25 01:23 -0.67730 -78.92593 23071 ft 401 kts 33°
2026-04-25 01:24 -0.65437 -78.91100 22886 ft 387 kts 33°
2026-04-25 01:24 -0.63197 -78.89645 22418 ft 383 kts 33°
2026-04-25 01:24 -0.60966 -78.88196 21830 ft 382 kts 33°
2026-04-25 01:24 -0.58747 -78.86755 21279 ft 380 kts 33°
2026-04-25 01:25 -0.56531 -78.85317 20750 ft 378 kts 33°
2026-04-25 01:25 -0.54331 -78.83889 20232 ft 376 kts 33°
2026-04-25 01:25 -0.52124 -78.82504 19709 ft 374 kts 31°
2026-04-25 01:25 -0.50156 -78.80831 19179 ft 373 kts 50°
2026-04-25 01:26 -0.48852 -78.78642 18671 ft 372 kts 65°
2026-04-25 01:26 -0.47790 -78.76294 18123 ft 370 kts 65°
2026-04-25 01:26 -0.46739 -78.73960 17624 ft 366 kts 65°
2026-04-25 01:26 -0.45709 -78.71673 17369 ft 352 kts 65°
2026-04-25 01:27 -0.44733 -78.69506 17193 ft 333 kts 65°
2026-04-25 01:27 -0.43810 -78.67456 17034 ft 314 kts 65°
2026-04-25 01:27 -0.42942 -78.65530 16965 ft 293 kts 65°
2026-04-25 01:28 -0.41391 -78.62039 16971 ft 266 kts 69°
2026-04-25 01:28 -0.40857 -78.60254 16975 ft 270 kts 75°
2026-04-25 01:28 -0.40391 -78.58442 16975 ft 269 kts 75°
2026-04-25 01:28 -0.39929 -78.56634 16977 ft 269 kts 75°
2026-04-25 01:29 -0.39477 -78.54865 16981 ft 256 kts 75°
2026-04-25 01:29 -0.39046 -78.53177 16995 ft 249 kts 75°
2026-04-25 01:29 -0.38611 -78.51477 16993 ft 254 kts 75°
2026-04-25 01:29 -0.38177 -78.49773 16990 ft 252 kts 75°
2026-04-25 01:30 -0.37744 -78.48075 16993 ft 252 kts 75°
2026-04-25 01:30 -0.37313 -78.46379 16956 ft 251 kts 75°
2026-04-25 01:30 -0.36879 -78.44701 16723 ft 249 kts 71°
2026-04-25 01:30 -0.36085 -78.43177 16362 ft 248 kts 56°
2026-04-25 01:31 -0.35119 -78.41712 15815 ft 258 kts 56°
2026-04-25 01:31 -0.34092 -78.40175 15124 ft 274 kts 56°
2026-04-25 01:31 -0.33021 -78.38587 14436 ft 283 kts 55°
2026-04-25 01:31 -0.31901 -78.36940 13664 ft 291 kts 54°
2026-04-25 01:32 -0.30430 -78.35550 12796 ft 297 kts 27°
2026-04-25 01:32 -0.28443 -78.34941 11953 ft 303 kts
2026-04-25 01:32 -0.26318 -78.34838 11101 ft 309 kts 359°
2026-04-25 01:32 -0.24173 -78.34929 10493 ft 304 kts 356°
2026-04-25 01:33 -0.22077 -78.35012 9908 ft 300 kts 358°
2026-04-25 01:33 -0.20022 -78.35104 9335 ft 279 kts 357°
2026-04-25 01:33 -0.18245 -78.35208 8714 ft 236 kts 356°
2026-04-25 01:33 -0.16739 -78.35262 8356 ft 195 kts 359°
2026-04-25 01:34 -0.15502 -78.35312 8150 ft 161 kts 355°
2026-04-25 01:34 -0.14453 -78.35365 7981 ft 141 kts 358°
2026-04-25 01:34 -0.13564 -78.35402 7891 ft 85 kts 359°
2026-04-25 01:34 -0.13255 -78.35407 7884 ft 36 kts 359°
2026-04-25 01:35 -0.13002 -78.35419 7876 ft 37 kts 357°
2026-04-25 01:35 -0.12730 -78.35429 7864 ft 39 kts 356°
2026-04-25 01:35 -0.12493 -78.35508 7849 ft 27 kts 330°
2026-04-25 01:35 -0.12446 -78.35538 7840 ft 0 kts 327°
2026-04-25 01:36 -0.12443 -78.35539 7840 ft 3 kts 327°
2026-04-25 01:37 -0.12410 -78.35590 7841 ft 15 kts 310°
2026-04-25 01:37 -0.12362 -78.35661 7837 ft 7 kts 277°
2026-04-25 01:37 -0.12359 -78.35746 7834 ft 16 kts 268°
2026-04-25 01:37 -0.12385 -78.35831 7838 ft 13 kts 212°
2026-04-25 01:38 -0.12480 -78.35838 7840 ft 15 kts 178°
2026-04-25 01:38 -0.12541 -78.35842 7836 ft 4 kts 222°
2026-04-25 01:38 -0.12547 -78.35881 7840 ft 7 kts 268°
2026-04-25 01:38 -0.12549 -78.35920 7837 ft 0 kts 266°